Time,TemperatureF,DewpointF,PressureIn,WindDirection,WindDirectionDegrees,WindSpeedMPH,WindSpeedGustMPH,Humidity,HourlyPrecipIn,Conditions,Clouds,dailyrainin,SoftwareType,DateUTC
2013-02-08 00:00:00,50.4,43.1,29.65,NW,315,1.1,4.9,76,0.00,,,0.00,WUHU216HW,2013-02-08 08:00:00,
2013-02-08 00:05:00,50.4,42.8,29.65,West,270,2.5,4.9,75,0.00,,,0.00,WUHU216HW,2013-02-08 08:05:00,
2013-02-08 00:10:00,50.4,42.4,29.65,NNW,338,5.4,5.4,74,0.00,,,0.00,WUHU216HW,2013-02-08 08:10:00,
2013-02-08 00:15:00,50.4,42.4,29.65,West,270,3.1,6.0,74,0.00,,,0.00,WUHU216HW,2013-02-08 08:15:00,
2013-02-08 00:20:00,50.4,42.0,29.64,NNW,338,1.8,6.0,73,0.00,,,0.00,WUHU216HW,2013-02-08 08:20:00,
2013-02-08 00:25:00,50.2,41.9,29.65,West,270,2.0,4.0,73,0.00,,,0.00,WUHU216HW,2013-02-08 08:25:00,
2013-02-08 00:30:00,50.2,41.9,29.65,NNW,338,1.6,5.1,73,0.00,,,0.00,WUHU216HW,2013-02-08 08:30:00,
2013-02-08 00:35:00,50.0,41.4,29.64,WNW,293,1.1,5.1,72,0.00,,,0.00,WUHU216HW,2013-02-08 08:35:00,
2013-02-08 00:40:00,50.0,41.4,29.64,North,0,2.7,2.7,72,0.00,,,0.00,WUHU216HW,2013-02-08 08:40:00,
2013-02-08 00:45:00,50.0,41.1,29.64,WNW,293,4.7,4.7,71,0.00,,,0.00,WUHU216HW,2013-02-08 08:45:00,
2013-02-08 00:50:00,50.0,40.7,29.64,WNW,293,4.0,4.7,70,0.00,,,0.00,WUHU216HW,2013-02-08 08:50:00,
2013-02-08 00:55:00,50.0,40.7,29.65,SW,225,2.5,5.8,70,0.00,,,0.00,WUHU216HW,2013-02-08 08:55:00,
2013-02-08 01:00:00,50.0,40.7,29.65,WNW,293,2.5,5.8,70,0.00,,,0.00,WUHU216HW,2013-02-08 09:00:00,
2013-02-08 01:05:00,50.0,40.7,29.65,West,270,2.0,4.9,70,0.00,,,0.00,WUHU216HW,2013-02-08 09:05:00,
2013-02-08 01:10:00,50.0,40.7,29.65,NW,315,2.5,4.9,70,0.00,,,0.00,WUHU216HW,2013-02-08 09:10:00,
2013-02-08 01:15:00,50.0,40.7,29.65,West,270,3.4,4.3,70,0.00,,,0.00,WUHU216HW,2013-02-08 09:15:00,
2013-02-08 01:20:00,50.2,40.9,29.65,West,270,2.2,6.9,70,0.00,,,0.00,WUHU216HW,2013-02-08 09:20:00,
2013-02-08 01:25:00,50.0,40.3,29.65,NW,315,2.2,6.9,69,0.00,,,0.00,WUHU216HW,2013-02-08 09:25:00,
2013-02-08 01:30:00,50.0,40.7,29.65,NW,315,2.5,6.9,70,0.00,,,0.00,WUHU216HW,2013-02-08 09:30:00,
2013-02-08 01:35:00,50.0,40.7,29.65,NW,315,2.7,5.8,70,0.00,,,0.00,WUHU216HW,2013-02-08 09:35:00,
2013-02-08 01:40:00,50.0,40.7,29.65,WSW,248,2.7,5.8,70,0.00,,,0.00,WUHU216HW,2013-02-08 09:40:00,
2013-02-08 01:45:00,50.0,40.7,29.65,NW,315,6.9,6.9,70,0.00,,,0.00,WUHU216HW,2013-02-08 09:45:00,
2013-02-08 01:50:00,50.0,40.7,29.65,WSW,248,6.0,6.9,70,0.00,,,0.00,WUHU216HW,2013-02-08 09:50:00,
2013-02-08 01:55:00,50.0,40.3,29.64,East,90,4.7,6.9,69,0.00,,,0.00,WUHU216HW,2013-02-08 09:55:00,
2013-02-08 02:00:00,50.0,40.3,29.64,SW,225,5.4,7.8,69,0.00,,,0.00,WUHU216HW,2013-02-08 10:00:00,
2013-02-08 02:05:00,50.0,40.3,29.64,West,270,3.1,7.8,69,0.00,,,0.00,WUHU216HW,2013-02-08 10:05:00,
2013-02-08 02:10:00,50.0,40.3,29.64,NW,315,3.6,5.8,69,0.00,,,0.00,WUHU216HW,2013-02-08 10:10:00,
2013-02-08 02:15:00,50.0,40.7,29.64,NW,315,2.2,9.6,70,0.00,,,0.00,WUHU216HW,2013-02-08 10:15:00,
2013-02-08 02:20:00,50.0,40.3,29.64,NW,315,2.5,9.6,69,0.00,,,0.00,WUHU216HW,2013-02-08 10:20:00,
2013-02-08 02:25:00,49.7,40.3,29.63,NNW,338,6.3,6.3,70,0.00,,,0.00,WUHU216HW,2013-02-08 10:25:00,
2013-02-08 02:30:00,49.7,40.3,29.63,WNW,293,5.6,6.9,70,0.00,,,0.00,WUHU216HW,2013-02-08 10:30:00,
2013-02-08 02:35:00,49.5,40.5,29.63,NNW,338,5.4,6.9,71,0.00,,,0.00,WUHU216HW,2013-02-08 10:35:00,
2013-02-08 02:40:00,49.3,40.3,29.63,NW,315,2.2,5.6,71,0.00,,,0.00,WUHU216HW,2013-02-08 10:40:00,
2013-02-08 02:45:00,49.1,40.2,29.63,WSW,248,2.0,5.4,71,0.00,,,0.00,WUHU216HW,2013-02-08 10:45:00,
2013-02-08 02:50:00,49.0,40.0,29.63,North,0,0.2,3.4,71,0.00,,,0.00,WUHU216HW,2013-02-08 10:50:00,
2013-02-08 02:55:00,48.8,39.8,29.63,West,270,4.7,4.7,71,0.00,,,0.00,WUHU216HW,2013-02-08 10:55:00,
2013-02-08 03:00:00,48.6,40.0,29.63,North,0,0.7,4.7,72,0.00,,,0.00,WUHU216HW,2013-02-08 11:00:00,
2013-02-08 03:05:00,48.8,40.2,29.63,WNW,293,0.2,4.7,72,0.00,,,0.00,WUHU216HW,2013-02-08 11:05:00,
2013-02-08 03:10:00,48.8,40.2,29.63,NW,315,1.6,4.0,72,0.00,,,0.00,WUHU216HW,2013-02-08 11:10:00,
2013-02-08 03:15:00,48.8,40.2,29.63,NNE,23,2.5,5.4,72,0.00,,,0.00,WUHU216HW,2013-02-08 11:15:00,
2013-02-08 03:20:00,49.0,40.3,29.63,WNW,293,3.8,5.4,72,0.00,,,0.00,WUHU216HW,2013-02-08 11:20:00,
2013-02-08 03:25:00,49.1,40.5,29.63,WNW,293,2.9,3.8,72,0.00,,,0.00,WUHU216HW,2013-02-08 11:25:00,
2013-02-08 03:30:00,49.3,40.7,29.63,SW,225,2.7,4.9,72,0.00,,,0.00,WUHU216HW,2013-02-08 11:30:00,
2013-02-08 03:35:00,49.3,40.7,29.63,NW,315,2.7,4.9,72,0.00,,,0.00,WUHU216HW,2013-02-08 11:35:00,
2013-02-08 03:40:00,49.3,40.7,29.63,WNW,293,3.4,4.9,72,0.00,,,0.00,WUHU216HW,2013-02-08 11:40:00,
2013-02-08 03:45:00,49.3,40.7,29.62,WNW,293,1.1,5.4,72,0.00,,,0.00,WUHU216HW,2013-02-08 11:45:00,
2013-02-08 03:50:00,49.1,40.5,29.63,WSW,248,2.2,5.4,72,0.00,,,0.00,WUHU216HW,2013-02-08 11:50:00,
2013-02-08 03:55:00,49.1,40.5,29.63,NNW,338,3.4,4.0,72,0.00,,,0.00,WUHU216HW,2013-02-08 11:55:00,
2013-02-08 04:00:00,49.1,40.5,29.63,NNW,338,2.5,4.0,72,0.00,,,0.00,WUHU216HW,2013-02-08 12:00:00,
2013-02-08 04:05:00,49.0,40.3,29.63,NNW,338,2.9,4.3,72,0.00,,,0.00,WUHU216HW,2013-02-08 12:05:00,
2013-02-08 04:10:00,49.0,40.3,29.63,West,270,2.7,4.3,72,0.00,,,0.00,WUHU216HW,2013-02-08 12:10:00,
2013-02-08 04:15:00,49.1,40.2,29.63,NW,315,2.9,3.1,71,0.00,,,0.00,WUHU216HW,2013-02-08 12:15:00,
2013-02-08 04:20:00,49.1,40.2,29.62,WNW,293,2.2,3.6,71,0.00,,,0.00,WUHU216HW,2013-02-08 12:20:00,
2013-02-08 04:25:00,49.0,40.0,29.63,North,0,3.4,5.1,71,0.00,,,0.00,WUHU216HW,2013-02-08 12:25:00,
2013-02-08 04:30:00,49.0,40.0,29.63,NNW,338,1.8,5.1,71,0.00,,,0.00,WUHU216HW,2013-02-08 12:30:00,
2013-02-08 04:35:00,49.0,40.3,29.63,West,270,1.1,3.4,72,0.00,,,0.00,WUHU216HW,2013-02-08 12:35:00,
2013-02-08 04:40:00,48.8,40.2,29.63,West,270,1.8,3.8,72,0.00,,,0.00,WUHU216HW,2013-02-08 12:40:00,
2013-02-08 04:45:00,48.6,40.0,29.62,West,270,1.1,3.8,72,0.00,,,0.00,WUHU216HW,2013-02-08 12:45:00,
2013-02-08 04:50:00,48.6,40.0,29.63,WSW,248,0.7,3.4,72,0.00,,,0.00,WUHU216HW,2013-02-08 12:50:00,
2013-02-08 04:55:00,48.4,39.8,29.63,WSW,248,1.3,2.9,72,0.00,,,0.00,WUHU216HW,2013-02-08 12:55:00,
2013-02-08 05:00:00,48.6,40.0,29.63,NNW,338,1.8,2.9,72,0.00,,,0.00,WUHU216HW,2013-02-08 13:00:00,
2013-02-08 05:05:00,48.6,40.0,29.63,SW,225,1.1,2.9,72,0.00,,,0.00,WUHU216HW,2013-02-08 13:05:00,
2013-02-08 05:10:00,48.4,39.8,29.63,West,270,0.2,2.7,72,0.00,,,0.00,WUHU216HW,2013-02-08 13:10:00,
2013-02-08 05:15:00,48.2,39.6,29.63,NNW,338,2.0,2.7,72,0.00,,,0.00,WUHU216HW,2013-02-08 13:15:00,
2013-02-08 05:20:00,48.2,39.6,29.63,West,270,1.1,2.7,72,0.00,,,0.00,WUHU216HW,2013-02-08 13:20:00,
2013-02-08 05:25:00,48.2,39.6,29.63,WSW,248,2.0,2.7,72,0.00,,,0.00,WUHU216HW,2013-02-08 13:25:00,
2013-02-08 05:30:00,48.1,39.1,29.63,WSW,248,0.4,2.5,71,0.00,,,0.00,WUHU216HW,2013-02-08 13:30:00,
2013-02-08 05:35:00,47.9,38.5,29.63,NW,315,0.9,2.5,70,0.00,,,0.00,WUHU216HW,2013-02-08 13:35:00,
2013-02-08 05:40:00,47.9,38.9,29.63,NW,315,0.7,1.6,71,0.00,,,0.00,WUHU216HW,2013-02-08 13:40:00,
2013-02-08 05:45:00,47.9,38.5,29.63,WNW,293,0.9,1.3,70,0.00,,,0.00,WUHU216HW,2013-02-08 13:45:00,
2013-02-08 05:50:00,47.7,38.7,29.63,WSW,248,3.8,3.8,71,0.00,,,0.00,WUHU216HW,2013-02-08 13:50:00,
2013-02-08 05:55:00,47.5,38.6,29.63,WSW,248,0.4,3.8,71,0.00,,,0.00,WUHU216HW,2013-02-08 13:55:00,
2013-02-08 06:00:00,47.3,38.8,29.63,NNW,338,0.4,3.8,72,0.00,,,0.00,WUHU216HW,2013-02-08 14:00:00,
2013-02-08 06:05:00,47.2,38.6,29.63,NNW,338,0.2,0.7,72,0.00,,,0.00,WUHU216HW,2013-02-08 14:05:00,
2013-02-08 06:10:00,46.8,38.3,29.63,WSW,248,0.4,1.1,72,0.00,,,0.00,WUHU216HW,2013-02-08 14:10:00,
2013-02-08 06:15:00,46.6,38.4,29.63,NNW,338,0.2,1.6,73,0.00,,,0.00,WUHU216HW,2013-02-08 14:15:00,
2013-02-08 06:20:00,46.4,38.3,29.63,NW,315,0.0,1.6,73,0.00,,,0.00,WUHU216HW,2013-02-08 14:20:00,
2013-02-08 06:25:00,46.1,38.3,29.63,NW,315,0.0,0.4,74,0.00,,,0.00,WUHU216HW,2013-02-08 14:25:00,
2013-02-08 06:30:00,45.9,38.1,29.63,NW,315,0.0,0.0,74,0.00,,,0.00,WUHU216HW,2013-02-08 14:30:00,
2013-02-08 06:35:00,45.7,38.3,29.63,NE,45,0.0,1.1,75,0.00,,,0.00,WUHU216HW,2013-02-08 14:35:00,
2013-02-08 06:40:00,45.4,37.9,29.63,NE,45,0.4,1.1,75,0.00,,,0.00,WUHU216HW,2013-02-08 14:40:00,
2013-02-08 06:45:00,45.2,37.7,29.63,NW,315,0.9,1.8,75,0.00,,,0.00,WUHU216HW,2013-02-08 14:45:00,
2013-02-08 06:50:00,45.4,37.9,29.64,West,270,0.0,1.8,75,0.00,,,0.00,WUHU216HW,2013-02-08 14:50:00,
2013-02-08 06:55:00,45.4,38.3,29.64,NNE,23,1.1,1.1,76,0.00,,,0.00,WUHU216HW,2013-02-08 14:55:00,
2013-02-08 07:00:00,45.2,38.1,29.64,North,0,0.7,1.1,76,0.00,,,0.00,WUHU216HW,2013-02-08 15:00:00,
2013-02-08 07:05:00,45.0,38.3,29.64,North,0,0.0,1.1,77,0.00,,,0.00,WUHU216HW,2013-02-08 15:05:00,
2013-02-08 07:10:00,45.0,38.3,29.64,WNW,293,0.9,0.9,77,0.00,,,0.00,WUHU216HW,2013-02-08 15:10:00,
2013-02-08 07:15:00,45.0,38.3,29.64,NNW,338,0.0,0.9,77,0.00,,,0.00,WUHU216HW,2013-02-08 15:15:00,
2013-02-08 07:20:00,45.0,38.5,29.64,ENE,68,0.0,1.1,78,0.00,,,0.00,WUHU216HW,2013-02-08 15:20:00,
2013-02-08 07:25:00,44.8,38.3,29.64,NE,45,0.0,1.1,78,0.00,,,0.00,WUHU216HW,2013-02-08 15:25:00,
2013-02-08 07:30:00,44.6,38.5,29.64,NE,45,0.4,0.9,79,0.00,,,0.00,WUHU216HW,2013-02-08 15:30:00,
2013-02-08 07:35:00,44.6,38.5,29.64,NE,45,0.0,0.9,79,0.00,,,0.00,WUHU216HW,2013-02-08 15:35:00,
2013-02-08 07:40:00,44.8,38.7,29.64,NE,45,0.0,0.7,79,0.00,,,0.00,WUHU216HW,2013-02-08 15:40:00,
2013-02-08 07:45:00,45.0,38.9,29.64,ENE,68,0.2,0.4,79,0.00,,,0.00,WUHU216HW,2013-02-08 15:45:00,
2013-02-08 07:50:00,45.5,39.4,29.64,SE,135,0.2,0.9,79,0.00,,,0.00,WUHU216HW,2013-02-08 15:50:00,
2013-02-08 07:55:00,45.9,39.8,29.65,SE,135,0.0,1.1,79,0.00,,,0.00,WUHU216HW,2013-02-08 15:55:00,
2013-02-08 08:00:00,46.3,39.8,29.64,SE,135,0.0,1.1,78,0.00,,,0.00,WUHU216HW,2013-02-08 16:00:00,
2013-02-08 08:05:00,46.8,40.0,29.65,ENE,68,0.0,1.1,77,0.00,,,0.00,WUHU216HW,2013-02-08 16:05:00,
2013-02-08 08:10:00,47.5,41.0,29.65,NW,315,1.1,1.1,78,0.00,,,0.00,WUHU216HW,2013-02-08 16:10:00,
2013-02-08 08:15:00,48.2,41.0,29.65,WSW,248,0.9,2.5,76,0.00,,,0.00,WUHU216HW,2013-02-08 16:15:00,
2013-02-08 08:20:00,48.8,40.8,29.65,WSW,248,1.1,2.5,74,0.00,,,0.00,WUHU216HW,2013-02-08 16:20:00,
2013-02-08 08:25:00,49.3,41.0,29.65,NW,315,1.1,2.2,73,0.00,,,0.00,WUHU216HW,2013-02-08 16:25:00,
2013-02-08 08:30:00,49.7,41.1,29.65,WNW,293,0.7,2.7,72,0.00,,,0.00,WUHU216HW,2013-02-08 16:30:00,
2013-02-08 08:35:00,50.2,40.9,29.65,WNW,293,0.9,4.7,70,0.00,,,0.00,WUHU216HW,2013-02-08 16:35:00,
2013-02-08 08:40:00,50.4,41.4,29.65,WSW,248,1.1,4.7,71,0.00,,,0.00,WUHU216HW,2013-02-08 16:40:00,
2013-02-08 08:45:00,50.2,40.9,29.65,WSW,248,2.2,3.4,70,0.00,,,0.00,WUHU216HW,2013-02-08 16:45:00,
2013-02-08 08:50:00,50.2,40.5,29.64,WSW,248,2.0,3.4,69,0.00,,,0.00,WUHU216HW,2013-02-08 16:50:00,
2013-02-08 08:55:00,50.4,40.7,29.64,NNW,338,2.5,4.7,69,0.00,,,0.00,WUHU216HW,2013-02-08 16:55:00,
2013-02-08 09:00:00,50.9,40.3,29.64,West,270,2.0,5.1,67,0.00,,,0.00,WUHU216HW,2013-02-08 17:00:00,
2013-02-08 09:05:00,51.1,40.5,29.64,NW,315,2.5,5.1,67,0.00,,,0.00,WUHU216HW,2013-02-08 17:05:00,
2013-02-08 09:10:00,50.9,39.5,29.64,NNW,338,3.6,3.8,65,0.00,,,0.00,WUHU216HW,2013-02-08 17:10:00,
2013-02-08 09:15:00,50.8,39.8,29.64,NW,315,1.1,5.4,66,0.00,,,0.00,WUHU216HW,2013-02-08 17:15:00,
2013-02-08 09:20:00,50.8,40.2,29.64,West,270,1.3,5.4,67,0.00,,,0.00,WUHU216HW,2013-02-08 17:20:00,
2013-02-08 09:25:00,50.8,40.6,29.64,WSW,248,1.3,2.7,68,0.00,,,0.00,WUHU216HW,2013-02-08 17:25:00,
2013-02-08 09:30:00,50.9,40.8,29.64,West,270,4.7,4.7,68,0.00,,,0.00,WUHU216HW,2013-02-08 17:30:00,
2013-02-08 09:35:00,50.9,40.8,29.64,WNW,293,1.8,4.7,68,0.00,,,0.00,WUHU216HW,2013-02-08 17:35:00,
2013-02-08 09:40:00,50.6,40.4,29.64,SSW,203,1.3,5.4,68,0.00,,,0.00,WUHU216HW,2013-02-08 17:40:00,
2013-02-08 09:45:00,50.8,40.6,29.64,WSW,248,1.6,5.4,68,0.00,,,0.00,WUHU216HW,2013-02-08 17:45:00,
2013-02-08 09:50:00,50.8,40.6,29.63,West,270,2.9,4.0,68,0.00,,,0.00,WUHU216HW,2013-02-08 17:50:00,
2013-02-08 09:55:00,51.1,41.0,29.64,North,0,1.6,4.0,68,0.00,,,0.00,WUHU216HW,2013-02-08 17:55:00,
2013-02-08 10:00:00,51.5,40.5,29.64,South,180,5.4,5.4,66,0.00,,,0.00,WUHU216HW,2013-02-08 18:00:00,
2013-02-08 10:05:00,51.5,40.1,29.64,WNW,293,4.3,6.0,65,0.00,,,0.00,WUHU216HW,2013-02-08 18:05:00,
2013-02-08 10:10:00,51.7,39.9,29.64,WSW,248,3.1,6.0,64,0.00,,,0.00,WUHU216HW,2013-02-08 18:10:00,
2013-02-08 10:15:00,51.7,39.9,29.64,WSW,248,2.5,6.0,64,0.00,,,0.00,WUHU216HW,2013-02-08 18:15:00,
2013-02-08 10:20:00,51.7,39.9,29.64,WNW,293,1.6,6.0,64,0.00,,,0.00,WUHU216HW,2013-02-08 18:20:00,
2013-02-08 10:25:00,51.7,39.9,29.64,SSW,203,1.8,5.8,64,0.00,,,0.00,WUHU216HW,2013-02-08 18:25:00,
2013-02-08 10:30:00,51.8,40.0,29.63,NNW,338,2.5,5.8,64,0.00,,,0.00,WUHU216HW,2013-02-08 18:30:00,
2013-02-08 10:35:00,51.8,40.0,29.63,WNW,293,3.8,5.4,64,0.00,,,0.00,WUHU216HW,2013-02-08 18:35:00,
2013-02-08 10:40:00,52.0,40.1,29.63,NNW,338,3.4,4.0,64,0.00,,,0.00,WUHU216HW,2013-02-08 18:40:00,
2013-02-08 10:45:00,52.0,40.6,29.63,West,270,1.8,5.8,65,0.00,,,0.00,WUHU216HW,2013-02-08 18:45:00,
2013-02-08 10:50:00,52.0,40.6,29.63,WSW,248,3.1,5.8,65,0.00,,,0.00,WUHU216HW,2013-02-08 18:50:00,
2013-02-08 10:55:00,52.2,41.1,29.63,SSW,203,3.8,5.1,66,0.00,,,0.00,WUHU216HW,2013-02-08 18:55:00,
2013-02-08 11:00:00,52.7,41.3,29.63,NNW,338,4.0,5.4,65,0.00,,,0.00,WUHU216HW,2013-02-08 19:00:00,
2013-02-08 11:05:00,52.9,41.4,29.63,SW,225,4.0,5.6,65,0.00,,,0.00,WUHU216HW,2013-02-08 19:05:00,
2013-02-08 11:10:00,52.9,41.4,29.63,SW,225,4.9,7.2,65,0.00,,,0.00,WUHU216HW,2013-02-08 19:10:00,
2013-02-08 11:15:00,52.9,41.1,29.63,West,270,3.4,7.2,64,0.00,,,0.00,WUHU216HW,2013-02-08 19:15:00,
2013-02-08 11:20:00,52.9,41.1,29.63,West,270,2.5,6.9,64,0.00,,,0.00,WUHU216HW,2013-02-08 19:20:00,
2013-02-08 11:25:00,52.6,40.7,29.63,West,270,2.7,6.9,64,0.00,,,0.00,WUHU216HW,2013-02-08 19:25:00,
2013-02-08 11:30:00,52.2,41.6,29.62,NW,315,2.7,6.3,67,0.00,,,0.00,WUHU216HW,2013-02-08 19:30:00,
2013-02-08 11:35:00,52.2,40.8,29.62,WSW,248,5.6,6.3,65,0.00,,,0.00,WUHU216HW,2013-02-08 19:35:00,
2013-02-08 11:40:00,52.0,41.0,29.62,WNW,293,4.0,8.5,66,0.00,,,0.00,WUHU216HW,2013-02-08 19:40:00,
2013-02-08 11:45:00,52.4,41.3,29.62,WSW,248,6.3,8.5,66,0.00,,,0.00,WUHU216HW,2013-02-08 19:45:00,
2013-02-08 11:50:00,52.2,40.8,29.62,SW,225,6.7,7.8,65,0.00,,,0.00,WUHU216HW,2013-02-08 19:50:00,
2013-02-08 11:55:00,52.2,41.1,29.61,West,270,3.8,6.7,66,0.00,,,0.00,WUHU216HW,2013-02-08 19:55:00,
2013-02-08 12:00:00,52.4,41.0,29.61,NW,315,6.0,7.4,65,0.00,,,0.00,WUHU216HW,2013-02-08 20:00:00,
2013-02-08 12:05:00,52.6,42.3,29.61,WNW,293,5.4,9.6,68,0.00,,,0.00,WUHU216HW,2013-02-08 20:05:00,
2013-02-08 12:10:00,52.6,42.8,29.61,WSW,248,2.2,9.6,69,0.00,,,0.00,WUHU216HW,2013-02-08 20:10:00,
2013-02-08 12:15:00,52.7,41.3,29.61,NW,315,4.5,8.9,65,0.00,,,0.00,WUHU216HW,2013-02-08 20:15:00,
2013-02-08 12:20:00,52.7,41.3,29.60,WSW,248,6.0,8.9,65,0.00,,,0.00,WUHU216HW,2013-02-08 20:20:00,
2013-02-08 12:25:00,52.4,41.3,29.60,NW,315,8.1,8.5,66,0.00,,,0.00,WUHU216HW,2013-02-08 20:25:00,
2013-02-08 12:30:00,52.0,41.9,29.60,WNW,293,3.4,8.5,68,0.00,,,0.00,WUHU216HW,2013-02-08 20:30:00,
2013-02-08 12:35:00,52.0,41.0,29.60,WNW,293,5.6,8.5,66,0.00,,,0.00,WUHU216HW,2013-02-08 20:35:00,
2013-02-08 12:40:00,51.5,40.9,29.59,NW,315,2.9,8.5,67,0.00,,,0.00,WUHU216HW,2013-02-08 20:40:00,
2013-02-08 12:45:00,52.2,40.8,29.59,WSW,248,4.0,6.7,65,0.00,,,0.00,WUHU216HW,2013-02-08 20:45:00,
2013-02-08 12:50:00,52.9,41.1,29.58,West,270,6.9,6.9,64,0.00,,,0.00,WUHU216HW,2013-02-08 20:50:00,
2013-02-08 12:55:00,53.1,40.8,29.58,West,270,4.0,6.9,63,0.00,,,0.00,WUHU216HW,2013-02-08 20:55:00,
2013-02-08 13:00:00,52.6,41.1,29.58,NW,315,5.4,6.5,65,0.00,,,0.00,WUHU216HW,2013-02-08 21:00:00,
2013-02-08 13:05:00,52.6,41.1,29.58,NNW,338,5.4,6.7,65,0.00,,,0.00,WUHU216HW,2013-02-08 21:05:00,
2013-02-08 13:10:00,52.7,40.9,29.58,WNW,293,1.6,6.9,64,0.00,,,0.00,WUHU216HW,2013-02-08 21:10:00,
2013-02-08 13:15:00,52.9,41.1,29.57,WSW,248,3.4,6.9,64,0.00,,,0.00,WUHU216HW,2013-02-08 21:15:00,
2013-02-08 13:20:00,52.9,41.1,29.58,WSW,248,2.5,6.5,64,0.00,,,0.00,WUHU216HW,2013-02-08 21:20:00,
2013-02-08 13:25:00,53.1,41.2,29.57,NNW,338,2.9,7.2,64,0.00,,,0.00,WUHU216HW,2013-02-08 21:25:00,
2013-02-08 13:30:00,52.9,41.1,29.57,SSE,158,3.6,7.2,64,0.00,,,0.00,WUHU216HW,2013-02-08 21:30:00,
2013-02-08 13:35:00,52.7,40.9,29.57,NNW,338,4.9,6.3,64,0.00,,,0.00,WUHU216HW,2013-02-08 21:35:00,
2013-02-08 13:40:00,52.9,41.4,29.57,West,270,3.1,5.4,65,0.00,,,0.00,WUHU216HW,2013-02-08 21:40:00,
2013-02-08 13:45:00,53.1,41.2,29.57,SW,225,6.3,6.3,64,0.00,,,0.00,WUHU216HW,2013-02-08 21:45:00,
2013-02-08 13:50:00,52.7,40.9,29.57,NW,315,6.9,6.9,64,0.00,,,0.00,WUHU216HW,2013-02-08 21:50:00,
2013-02-08 13:55:00,52.4,41.3,29.57,SW,225,5.4,6.9,66,0.00,,,0.00,WUHU216HW,2013-02-08 21:55:00,
2013-02-08 14:00:00,52.9,41.4,29.57,WSW,248,3.8,6.9,65,0.00,,,0.00,WUHU216HW,2013-02-08 22:00:00,
2013-02-08 14:05:00,52.0,41.0,29.57,NW,315,1.8,6.7,66,0.00,,,0.00,WUHU216HW,2013-02-08 22:05:00,
2013-02-08 14:10:00,51.7,41.0,29.57,WNW,293,5.1,6.7,67,0.00,,,0.00,WUHU216HW,2013-02-08 22:10:00,
2013-02-08 14:15:00,51.3,41.1,29.57,WSW,248,2.5,5.4,68,0.00,,,0.00,WUHU216HW,2013-02-08 22:15:00,
2013-02-08 14:20:00,51.1,41.0,29.57,NNW,338,3.1,5.1,68,0.00,,,0.00,WUHU216HW,2013-02-08 22:20:00,
2013-02-08 14:25:00,50.9,40.8,29.56,NNW,338,3.4,6.9,68,0.00,,,0.00,WUHU216HW,2013-02-08 22:25:00,
2013-02-08 14:30:00,51.3,41.1,29.56,West,270,4.7,6.9,68,0.00,,,0.00,WUHU216HW,2013-02-08 22:30:00,
2013-02-08 14:35:00,51.1,41.3,29.56,WSW,248,3.1,4.7,69,0.00,,,0.00,WUHU216HW,2013-02-08 22:35:00,
2013-02-08 14:40:00,50.8,41.1,29.55,NW,315,1.6,6.3,69,0.00,,,0.00,WUHU216HW,2013-02-08 22:40:00,
2013-02-08 14:45:00,51.5,41.3,29.55,NNW,338,1.8,6.3,68,0.00,,,0.00,WUHU216HW,2013-02-08 22:45:00,
2013-02-08 14:50:00,52.0,41.9,29.55,WSW,248,3.4,6.7,68,0.00,,,0.00,WUHU216HW,2013-02-08 22:50:00,
2013-02-08 14:55:00,51.8,41.2,29.55,NNW,338,5.1,6.7,67,0.00,,,0.00,WUHU216HW,2013-02-08 22:55:00,
2013-02-08 15:00:00,51.8,41.7,29.55,West,270,5.4,6.9,68,0.00,,,0.00,WUHU216HW,2013-02-08 23:00:00,
2013-02-08 15:05:00,51.5,41.3,29.55,SSE,158,2.9,6.9,68,0.00,,,0.00,WUHU216HW,2013-02-08 23:05:00,
2013-02-08 15:10:00,51.1,41.3,29.55,SW,225,4.3,6.7,69,0.00,,,0.00,WUHU216HW,2013-02-08 23:10:00,
2013-02-08 15:15:00,51.3,41.1,29.55,West,270,5.8,6.0,68,0.00,,,0.00,WUHU216HW,2013-02-08 23:15:00,
2013-02-08 15:20:00,51.3,41.5,29.55,West,270,0.9,6.0,69,0.00,,,0.00,WUHU216HW,2013-02-08 23:20:00,
2013-02-08 15:25:00,51.5,41.7,29.55,ENE,68,2.5,6.0,69,0.00,,,0.00,WUHU216HW,2013-02-08 23:25:00,
2013-02-08 15:30:00,51.7,41.9,29.55,SW,225,1.8,7.6,69,0.00,,,0.00,WUHU216HW,2013-02-08 23:30:00,
2013-02-08 15:35:00,51.5,41.3,29.55,West,270,6.3,7.6,68,0.00,,,0.00,WUHU216HW,2013-02-08 23:35:00,
2013-02-08 15:40:00,51.5,41.3,29.55,West,270,4.0,6.3,68,0.00,,,0.00,WUHU216HW,2013-02-08 23:40:00,
2013-02-08 15:45:00,51.1,41.0,29.55,West,270,4.5,6.7,68,0.00,,,0.00,WUHU216HW,2013-02-08 23:45:00,
2013-02-08 15:50:00,51.1,41.3,29.54,NW,315,3.8,6.7,69,0.00,,,0.00,WUHU216HW,2013-02-08 23:50:00,
2013-02-08 15:55:00,51.5,41.7,29.54,NNW,338,1.6,6.7,69,0.00,,,0.00,WUHU216HW,2013-02-08 23:55:00,
2013-02-08 16:00:00,51.5,41.3,29.54,West,270,5.4,7.6,68,0.00,,,0.00,WUHU216HW,2013-02-09 00:00:00,
2013-02-08 16:05:00,51.1,42.5,29.55,NE,45,1.8,7.6,72,0.00,,,0.00,WUHU216HW,2013-02-09 00:05:00,
2013-02-08 16:10:00,50.9,42.3,29.55,SW,225,3.8,7.2,72,0.00,,,0.00,WUHU216HW,2013-02-09 00:10:00,
2013-02-08 16:15:00,51.3,42.7,29.55,NW,315,4.0,6.3,72,0.00,,,0.00,WUHU216HW,2013-02-09 00:15:00,
2013-02-08 16:20:00,51.1,42.5,29.55,West,270,3.4,7.6,72,0.00,,,0.00,WUHU216HW,2013-02-09 00:20:00,
2013-02-08 16:25:00,51.5,42.9,29.55,West,270,8.9,8.9,72,0.00,,,0.00,WUHU216HW,2013-02-09 00:25:00,
2013-02-08 16:30:00,51.7,42.7,29.55,North,0,3.8,8.9,71,0.00,,,0.00,WUHU216HW,2013-02-09 00:30:00,
2013-02-08 16:35:00,51.8,42.5,29.55,NNW,338,7.2,8.9,70,0.00,,,0.00,WUHU216HW,2013-02-09 00:35:00,
2013-02-08 16:40:00,51.7,42.3,29.55,NW,315,3.6,8.7,70,0.00,,,0.00,WUHU216HW,2013-02-09 00:40:00,
2013-02-08 16:45:00,51.5,42.9,29.55,SW,225,2.7,8.7,72,0.00,,,0.00,WUHU216HW,2013-02-09 00:45:00,
2013-02-08 16:50:00,51.8,42.5,29.55,NW,315,1.1,8.1,70,0.00,,,0.00,WUHU216HW,2013-02-09 00:50:00,
2013-02-08 16:55:00,52.2,41.9,29.55,WNW,293,3.1,4.7,68,0.00,,,0.00,WUHU216HW,2013-02-09 00:55:00,
2013-02-08 17:00:00,51.8,41.7,29.54,West,270,4.7,6.9,68,0.00,,,0.00,WUHU216HW,2013-02-09 01:00:00,
2013-02-08 17:05:00,51.7,41.5,29.54,WSW,248,1.8,6.9,68,0.00,,,0.00,WUHU216HW,2013-02-09 01:05:00,
2013-02-08 17:10:00,51.5,42.5,29.55,NNW,338,2.5,5.4,71,0.00,,,0.00,WUHU216HW,2013-02-09 01:10:00,
2013-02-08 17:15:00,51.5,42.1,29.54,NW,315,1.3,5.1,70,0.00,,,0.00,WUHU216HW,2013-02-09 01:15:00,
2013-02-08 17:20:00,51.5,41.7,29.54,WSW,248,2.0,5.1,69,0.00,,,0.00,WUHU216HW,2013-02-09 01:20:00,
2013-02-08 17:25:00,51.3,41.5,29.54,West,270,1.8,5.8,69,0.00,,,0.00,WUHU216HW,2013-02-09 01:25:00,
2013-02-08 17:30:00,51.1,41.3,29.54,NNW,338,0.9,5.8,69,0.00,,,0.00,WUHU216HW,2013-02-09 01:30:00,
2013-02-08 17:35:00,51.1,41.0,29.54,WNW,293,2.7,4.7,68,0.00,,,0.00,WUHU216HW,2013-02-09 01:35:00,
2013-02-08 17:40:00,50.9,40.8,29.54,North,0,1.8,4.7,68,0.00,,,0.00,WUHU216HW,2013-02-09 01:40:00,
2013-02-08 17:45:00,50.8,40.6,29.54,West,270,0.0,3.4,68,0.00,,,0.00,WUHU216HW,2013-02-09 01:45:00,
2013-02-08 17:50:00,50.8,40.6,29.53,NNW,338,1.3,3.1,68,0.00,,,0.00,WUHU216HW,2013-02-09 01:50:00,
2013-02-08 17:55:00,50.8,40.6,29.53,North,0,1.6,3.1,68,0.00,,,0.00,WUHU216HW,2013-02-09 01:55:00,
2013-02-08 18:00:00,50.8,40.6,29.54,NW,315,0.0,2.5,68,0.00,,,0.00,WUHU216HW,2013-02-09 02:00:00,
2013-02-08 18:05:00,50.6,40.4,29.54,NW,315,0.9,1.3,68,0.00,,,0.00,WUHU216HW,2013-02-09 02:05:00,
2013-02-08 18:10:00,50.6,39.6,29.54,South,180,0.4,4.0,66,0.00,,,0.00,WUHU216HW,2013-02-09 02:10:00,
2013-02-08 18:15:00,50.6,40.1,29.55,ENE,68,2.0,4.0,67,0.00,,,0.00,WUHU216HW,2013-02-09 02:15:00,
2013-02-08 18:20:00,50.4,40.2,29.55,East,90,2.5,3.4,68,0.00,,,0.00,WUHU216HW,2013-02-09 02:20:00,
2013-02-08 18:25:00,49.7,41.3,29.55,ENE,68,5.4,5.6,73,0.00,,,0.00,WUHU216HW,2013-02-09 02:25:00,
2013-02-08 18:30:00,49.1,41.1,29.55,ESE,113,1.8,5.6,74,0.00,,,0.00,WUHU216HW,2013-02-09 02:30:00,
2013-02-08 18:35:00,48.6,40.6,29.55,ESE,113,1.3,5.6,74,0.00,,,0.00,WUHU216HW,2013-02-09 02:35:00,
2013-02-08 18:40:00,48.6,40.2,29.55,NE,45,2.5,3.4,73,0.00,,,0.00,WUHU216HW,2013-02-09 02:40:00,
2013-02-08 18:45:00,48.2,41.0,29.55,ENE,68,1.8,3.6,76,0.00,,,0.00,WUHU216HW,2013-02-09 02:45:00,
2013-02-08 18:50:00,47.9,41.0,29.56,East,90,2.5,4.7,77,0.00,,,0.00,WUHU216HW,2013-02-09 02:50:00,
2013-02-08 18:55:00,47.7,40.8,29.56,ENE,68,1.3,4.9,77,0.00,,,0.00,WUHU216HW,2013-02-09 02:55:00,
2013-02-08 19:00:00,47.7,40.8,29.55,ENE,68,1.8,4.9,77,0.00,,,0.00,WUHU216HW,2013-02-09 03:00:00,
2013-02-08 19:05:00,47.3,40.5,29.55,East,90,2.5,4.0,77,0.00,,,0.00,WUHU216HW,2013-02-09 03:05:00,
2013-02-08 19:10:00,47.2,40.3,29.56,ENE,68,3.4,4.0,77,0.00,,,0.00,WUHU216HW,2013-02-09 03:10:00,
2013-02-08 19:15:00,47.2,40.3,29.56,NE,45,3.1,3.8,77,0.00,,,0.00,WUHU216HW,2013-02-09 03:15:00,
2013-02-08 19:20:00,47.0,40.1,29.56,ENE,68,1.6,3.4,77,0.00,,,0.00,WUHU216HW,2013-02-09 03:20:00,
2013-02-08 19:25:00,46.8,40.3,29.56,ENE,68,2.9,4.0,78,0.00,,,0.00,WUHU216HW,2013-02-09 03:25:00,
2013-02-08 19:30:00,46.6,40.1,29.56,ENE,68,2.2,4.0,78,0.00,,,0.00,WUHU216HW,2013-02-09 03:30:00,
2013-02-08 19:35:00,46.4,39.7,29.56,East,90,2.9,3.4,77,0.00,,,0.00,WUHU216HW,2013-02-09 03:35:00,
2013-02-08 19:40:00,46.3,39.8,29.56,NNE,23,2.0,3.4,78,0.00,,,0.00,WUHU216HW,2013-02-09 03:40:00,
2013-02-08 19:45:00,46.1,39.3,29.57,East,90,1.8,2.9,77,0.00,,,0.00,WUHU216HW,2013-02-09 03:45:00,
2013-02-08 19:50:00,45.9,39.4,29.57,NE,45,1.8,2.5,78,0.00,,,0.00,WUHU216HW,2013-02-09 03:50:00,
2013-02-08 19:55:00,45.9,39.2,29.57,North,0,1.6,2.0,77,0.00,,,0.00,WUHU216HW,2013-02-09 03:55:00,
2013-02-08 20:00:00,45.7,39.0,29.57,NE,45,0.9,2.2,77,0.00,,,0.00,WUHU216HW,2013-02-09 04:00:00,
2013-02-08 20:05:00,45.7,39.0,29.57,NNE,23,0.4,2.2,77,0.00,,,0.00,WUHU216HW,2013-02-09 04:05:00,
2013-02-08 20:10:00,45.5,38.8,29.57,East,90,1.1,1.6,77,0.00,,,0.00,WUHU216HW,2013-02-09 04:10:00,
2013-02-08 20:16:00,45.4,38.6,29.57,ENE,68,1.6,1.6,77,0.00,,,0.00,WUHU216HW,2013-02-09 04:16:00,
2013-02-08 20:21:00,45.2,38.7,29.57,ENE,68,1.1,2.5,78,0.00,,,0.00,WUHU216HW,2013-02-09 04:21:00,
2013-02-08 20:26:00,45.0,38.3,29.57,NNE,23,0.7,2.5,77,0.00,,,0.00,WUHU216HW,2013-02-09 04:26:00,
2013-02-08 20:31:00,45.0,38.5,29.57,ENE,68,0.9,1.3,78,0.00,,,0.00,WUHU216HW,2013-02-09 04:31:00,
2013-02-08 20:36:00,44.8,38.7,29.57,East,90,1.6,1.8,79,0.00,,,0.00,WUHU216HW,2013-02-09 04:36:00,
2013-02-08 20:41:00,44.8,38.7,29.57,East,90,1.3,1.8,79,0.00,,,0.00,WUHU216HW,2013-02-09 04:41:00,
2013-02-08 20:46:00,44.5,38.3,29.57,East,90,0.9,2.5,79,0.00,,,0.00,WUHU216HW,2013-02-09 04:46:00,
2013-02-08 20:51:00,44.3,38.2,29.57,NNE,23,0.0,2.5,79,0.00,,,0.00,WUHU216HW,2013-02-09 04:51:00,
2013-02-08 20:56:00,44.3,38.2,29.57,ENE,68,0.7,1.6,79,0.00,,,0.00,WUHU216HW,2013-02-09 04:56:00,
2013-02-08 21:00:00,44.1,38.0,29.58,ESE,113,2.0,3.1,79,0.00,,,0.00,WUHU216HW,2013-02-09 05:00:00,
2013-02-08 21:05:00,44.3,38.5,29.58,East,90,1.3,3.1,80,0.00,,,0.00,WUHU216HW,2013-02-09 05:05:00,
2013-02-08 21:10:00,44.3,38.5,29.57,East,90,1.1,2.9,80,0.00,,,0.00,WUHU216HW,2013-02-09 05:10:00,
2013-02-08 21:15:00,43.9,38.2,29.58,ENE,68,0.9,2.9,80,0.00,,,0.00,WUHU216HW,2013-02-09 05:15:00,
2013-02-08 21:20:00,43.9,38.2,29.58,NE,45,0.9,2.5,80,0.00,,,0.00,WUHU216HW,2013-02-09 05:20:00,
2013-02-08 21:25:00,43.7,38.0,29.58,ESE,113,1.1,2.7,80,0.00,,,0.00,WUHU216HW,2013-02-09 05:25:00,
2013-02-08 21:30:00,43.6,38.1,29.58,WNW,293,0.9,3.4,81,0.00,,,0.00,WUHU216HW,2013-02-09 05:30:00,
2013-02-08 21:35:00,43.6,37.8,29.58,NE,45,0.4,3.4,80,0.00,,,0.00,WUHU216HW,2013-02-09 05:35:00,
2013-02-08 21:40:00,43.7,38.0,29.58,ENE,68,1.1,2.7,80,0.00,,,0.00,WUHU216HW,2013-02-09 05:40:00,
2013-02-08 21:45:00,43.9,37.8,29.58,ENE,68,3.4,3.4,79,0.00,,,0.00,WUHU216HW,2013-02-09 05:45:00,
2013-02-08 21:50:00,43.9,38.2,29.58,East,90,4.3,5.6,80,0.00,,,0.00,WUHU216HW,2013-02-09 05:50:00,
2013-02-08 21:55:00,44.1,38.3,29.58,East,90,2.7,6.3,80,0.00,,,0.00,WUHU216HW,2013-02-09 05:55:00,
2013-02-08 22:00:00,43.9,38.2,29.59,ENE,68,2.0,6.3,80,0.00,,,0.00,WUHU216HW,2013-02-09 06:00:00,
2013-02-08 22:05:00,44.1,37.7,29.58,NE,45,3.8,4.3,78,0.00,,,0.00,WUHU216HW,2013-02-09 06:05:00,
2013-02-08 22:10:00,44.5,37.7,29.59,ESE,113,3.6,4.0,77,0.00,,,0.00,WUHU216HW,2013-02-09 06:10:00,
2013-02-08 22:15:00,44.5,37.7,29.59,SE,135,1.6,7.4,77,0.00,,,0.00,WUHU216HW,2013-02-09 06:15:00,
2013-02-08 22:20:00,44.5,37.7,29.59,NNE,23,0.4,7.4,77,0.00,,,0.00,WUHU216HW,2013-02-09 06:20:00,
2013-02-08 22:25:00,44.3,37.5,29.59,SE,135,1.8,4.0,77,0.00,,,0.00,WUHU216HW,2013-02-09 06:25:00,
2013-02-08 22:30:00,44.3,37.8,29.59,SSE,158,2.7,3.1,78,0.00,,,0.00,WUHU216HW,2013-02-09 06:30:00,
2013-02-08 22:35:00,44.3,37.8,29.59,SE,135,2.9,4.7,78,0.00,,,0.00,WUHU216HW,2013-02-09 06:35:00,
2013-02-08 22:40:00,44.3,37.8,29.59,ESE,113,5.1,8.7,78,0.00,,,0.00,WUHU216HW,2013-02-09 06:40:00,
2013-02-08 22:45:00,44.8,38.1,29.59,East,90,3.8,8.7,77,0.00,,,0.00,WUHU216HW,2013-02-09 06:45:00,
2013-02-08 22:50:00,44.8,38.1,29.59,NE,45,4.5,6.9,77,0.00,,,0.00,WUHU216HW,2013-02-09 06:50:00,
2013-02-08 22:55:00,44.8,38.1,29.60,ENE,68,1.1,6.3,77,0.00,,,0.00,WUHU216HW,2013-02-09 06:55:00,
2013-02-08 23:00:00,44.6,37.9,29.60,ESE,113,3.4,6.3,77,0.00,,,0.00,WUHU216HW,2013-02-09 07:00:00,
2013-02-08 23:05:00,44.5,37.7,29.60,ESE,113,4.0,5.1,77,0.00,,,0.00,WUHU216HW,2013-02-09 07:05:00,
2013-02-08 23:10:00,44.3,37.5,29.60,SSW,203,4.0,5.1,77,0.00,,,0.00,WUHU216HW,2013-02-09 07:10:00,
2013-02-08 23:15:00,44.3,37.8,29.60,ESE,113,5.6,5.6,78,0.00,,,0.00,WUHU216HW,2013-02-09 07:15:00,
2013-02-08 23:20:00,44.3,37.5,29.60,NNE,23,3.6,6.5,77,0.00,,,0.00,WUHU216HW,2013-02-09 07:20:00,
2013-02-08 23:25:00,44.3,37.8,29.60,NE,45,1.6,6.5,78,0.00,,,0.00,WUHU216HW,2013-02-09 07:25:00,
2013-02-08 23:30:00,44.1,37.7,29.60,ENE,68,0.7,3.6,78,0.00,,,0.00,WUHU216HW,2013-02-09 07:30:00,
2013-02-08 23:35:00,43.9,37.5,29.60,SE,135,1.8,2.0,78,0.00,,,0.00,WUHU216HW,2013-02-09 07:35:00,
2013-02-08 23:40:00,43.6,37.2,29.61,SE,135,4.0,4.0,78,0.00,,,0.00,WUHU216HW,2013-02-09 07:40:00,
2013-02-08 23:45:00,43.6,37.4,29.61,East,90,2.9,5.6,79,0.00,,,0.00,WUHU216HW,2013-02-09 07:45:00,
2013-02-08 23:50:00,43.4,37.3,29.61,ENE,68,1.1,5.6,79,0.00,,,0.00,WUHU216HW,2013-02-09 07:50:00,
2013-02-08 23:55:00,43.2,36.8,29.61,SE,135,2.0,3.4,78,0.00,,,0.00,WUHU216HW,2013-02-09 07:55:00,